Satellite: FO-70
Catalog number: 37380
Epoch time:      12158.13870081
Element set:    0202
Inclination:      071.9726 deg
RA of node:       336.8852 deg
Eccentricity:    0.0017865
Arg of perigee:   333.0252 deg
Mean anomaly:     026.9991 deg
Mean motion:   14.76822960 rev/day
Decay rate:       4.95e-06 rev/day^2
Epoch rev:           03435
Checksum:              313

Satellite: ALMASAT-1
Catalog number: 38078
Epoch time:      12158.82356546
Element set:     274
Inclination:      069.4981 deg
RA of node:       340.7323 deg
Eccentricity:    0.0761625
Arg of perigee:   261.6474 deg
Mean anomaly:     089.7685 deg
Mean motion:   14.08908574 rev/day
Decay rate:     1.3865e-04 rev/day^2
Epoch rev:            1609
Checksum:              348

Satellite: XATCOBEO
Catalog number: 38082
Epoch time:      12158.80371341
Element set:     293
Inclination:      069.4951 deg
RA of node:       339.1902 deg
Eccentricity:    0.0741537
Arg of perigee:   260.8178 deg
Mean anomaly:     090.8376 deg
Mean motion:   14.15439439 rev/day
Decay rate:     3.2932e-04 rev/day^2
Epoch rev:            1612
Checksum:              311

/EX
SB KEPS @ AMSAT  $ORB12158.W
Orbital Elements  12158.WEATHER

HR AMSAT ORBITAL ELEMENTS FOR WEATHER SATELLITES
FROM WA5QGD FORT WORTH,TX June 6, 2012
Send SUBSCRIBE KEPS/UNSUBSCRIBE KEPS to majordomo at amsat.org only
BID: ORB12158.W
TO ALL RADIO AMATEURS BT

Satellite: NOAA-10
Catalog number: 16969
Epoch time:      12157.66553747
Element set:    0947
Inclination:      098.5806 deg
RA of node:       186.9239 deg
Eccentricity:    0.0011395
Arg of perigee:   269.3428 deg
Mean anomaly:     090.6432 deg
Mean motion:   14.27555448 rev/day
Decay rate:       1.84e-06 rev/day^2
Epoch rev:           33822
Checksum:              348

Satellite: NOAA-11
Catalog number: 19531
Epoch time:      12157.76001829
Element set:    0945
Inclination:      098.7324 deg
RA of node:       243.1584 deg
Eccentricity:    0.0010344
Arg of perigee:   257.1326 deg
Mean anomaly:     102.8687 deg
Mean motion:   14.14968934 rev/day
Decay rate:      -1.08e-06 rev/day^2
Epoch rev:           22289
Checksum:              310

Satellite: NOAA-12
Catalog number: 21263
Epoch time:      12157.95726543
Element set:    0449
Inclination:      098.7284 deg
RA of node:       179.6737 deg
Eccentricity:    0.0012914
Arg of perigee:   232.5829 deg
Mean anomaly:     127.4175 deg
Mean motion:   14.25498477 rev/day
Decay rate:        6.2e-07 rev/day^2
Epoch rev:           09495
Checksum:              341

Satellite: MET-3/5
Catalog number: 21655
Epoch time:      12158.81733422
Element set:     427
Inclination:      082.5548 deg
RA of node:       159.5133 deg
Eccentricity:    0.0012937
Arg of perigee:   354.1919 deg
Mean anomaly:     005.9052 deg
Mean motion:   13.17036035 rev/day
Decay rate:       1.65e-06 rev/day^2
Epoch rev:              52
Checksum:              279

Satellite: MET-2/21
Catalog number: 22782
Epoch time:      12157.73108168
Element set:    0437
Inclination:      082.5493 deg
RA of node:       041.6055 deg
Eccentricity:    0.0022234
Arg of perigee:   180.9584 deg
Mean anomaly:     179.1548 deg
Mean motion:   13.83684570 rev/day
Decay rate:        9.0e-08 rev/day^2
Epoch rev:           94758
Checksum:              324

Satellite: OKEAN-4
Catalog number: 23317
Epoch time:      12157.97215775
Element set:    0938
Inclination:      082.5413 deg
RA of node:       041.6935 deg
Eccentricity:    0.0022824
Arg of perigee:   032.5561 deg
Mean anomaly:     327.7057 deg
Mean motion:   14.83789124 rev/day
Decay rate:      1.059e-05 rev/day^2
Epoch rev:           95314
Checksum:              314

Satellite: NOAA-14
Catalog number: 23455
Epoch time:      12157.93678205
Element set:    0930
Inclination:      098.8265 deg
RA of node:       241.5760 deg
Eccentricity:    0.0009558
Arg of perigee:   358.0362 deg
Mean anomaly:     002.0769 deg
Mean motion:   14.13900948 rev/day
Decay rate:        1.2e-07 rev/day^2
Epoch rev:           89920
Checksum:              314

Satellite: NOAA-15
Catalog number: 25338
Epoch time:      12157.89318688
Element set:    0286
Inclination:      098.6888 deg
RA of node:       144.9081 deg
Eccentricity:    0.0011368
Arg of perigee:   137.4879 deg
Mean anomaly:     222.7182 deg
Mean motion:   14.25077295 rev/day
Decay rate:       1.96e-06 rev/day^2
Epoch rev:           73124
Checksum:              351

Satellite: RESURS
Catalog number: 25394
Epoch time:      12158.51281051
Element set:     104
Inclination:      098.3186 deg
RA of node:       147.3119 deg
Eccentricity:    0.0000544
Arg of perigee:   316.8342 deg
Mean anomaly:     043.2793 deg
Mean motion:   14.24288503 rev/day
Decay rate:       -4.0e-08 rev/day^2
Epoch rev:           72288
Checksum:              277

Satellite: FENGYUN1
Catalog number: 25730
Epoch time:      12157.92839564
Element set:     620
Inclination:      098.8454 deg
RA of node:       117.1050 deg
Eccentricity:    0.0020610
Arg of perigee:   037.7628 deg
Mean anomaly:     322.4983 deg
Mean motion:   14.09570789 rev/day
Decay rate:      1.512e-05 rev/day^2
Epoch rev:           67302
Checksum:              299

Satellite: OKEAN-0
Catalog number: 25860
Epoch time:      12158.87592059
Element set:     647
Inclination:      097.9348 deg
RA of node:       121.7305 deg
Eccentricity:    0.0000696
Arg of perigee:   036.7052 deg
Mean anomaly:     323.4207 deg
Mean motion:   14.74207601 rev/day
Decay rate:       4.37e-06 rev/day^2
Epoch rev:           69305
Checksum:              303

Satellite: NOAA-16
Catalog number: 26536
Epoch time:      12157.91808236
Element set:    0770
Inclination:      099.0962 deg
RA of node:       199.8664 deg
Eccentricity:    0.0011403
Arg of perigee:   113.7964 deg
Mean anomaly:     246.4401 deg
Mean motion:   14.12743816 rev/day
Decay rate:       -4.5e-07 rev/day^2
Epoch rev:           60344
Checksum:              310

Satellite: NOAA-17
Catalog number: 27453
Epoch time:      12157.92424417
Element set:    0729
Inclination:      098.3366 deg
RA of node:       185.5300 deg
Eccentricity:    0.0011685
Arg of perigee:   184.4672 deg
Mean anomaly:     175.6408 deg
Mean motion:   14.24440495 rev/day
Decay rate:       1.47e-06 rev/day^2
Epoch rev:           51715
Checksum:              315

Satellite: NOAA-18
Catalog number: 28654
Epoch time:      12157.93787712
Element set:    0205
Inclination:      099.0445 deg
RA of node:       115.9321 deg
Eccentricity:    0.0014186
Arg of perigee:   182.9169 deg
Mean anomaly:     177.1942 deg
Mean motion:   14.11658487 rev/day
Decay rate:       4.20e-06 rev/day^2
Epoch rev:           36297
Checksum:              329

Satellite: NOAA-19
Catalog number: 33591
Epoch time:      12157.65968194
Element set:    0396
Inclination:      098.8642 deg
RA of node:       097.5919 deg
Eccentricity:    0.0014998
Arg of perigee:   056.0848 deg
Mean anomaly:     304.1725 deg
Mean motion:   14.11345628 rev/day
Decay rate:       2.83e-06 rev/day^2
Epoch rev:           17138
Checksum:              352

/EX
SB KEPS @ AMSAT  $ORB12158.M
Orbital Elements  12158.MISC

HR AMSAT ORBITAL ELEMENTS FOR MANNED AND MISCELLANEOUS SATELLITES
FROM WA5QGD FORT WORTH,TX June 6, 2012
Send SUBSCRIBE KEPS/UNSUBSCRIBE KEPS to majordomo at amsat.org only
BID: ORB12158.M
TO ALL RADIO AMATEURS BT

Satellite: HUBBLE
Catalog number: 20580
Epoch time:      12157.23442705
Element set:      11
Inclination:      028.4673 deg
RA of node:       221.7732 deg
Eccentricity:    0.0003475
Arg of perigee:   292.5723 deg
Mean anomaly:     067.4532 deg
Mean motion:   15.02529362 rev/day
Decay rate:      1.704e-05 rev/day^2
Epoch rev:            1293
Checksum:              260

Satellite: ISS
Catalog number: 25544
Epoch time:      12158.78670139
Element set:     702
Inclination:      051.6365 deg
RA of node:       174.4085 deg
Eccentricity:    0.0010403
Arg of perigee:   037.9761 deg
Mean anomaly:     316.7829 deg
Mean motion:   15.56181056 rev/day
Decay rate:     1.2336e-04 rev/day^2
Epoch rev:           77638
Checksum:              310

Satellite: CO-58
Catalog number: 28895
Epoch time:      12158.39639028
Element set:     193
Inclination:      097.9128 deg
RA of node:       025.1434 deg
Eccentricity:    0.0017828
Arg of perigee:   180.8233 deg
Mean anomaly:     179.2960 deg
Mean motion:   14.60632449 rev/day
Decay rate:       8.44e-06 rev/day^2
Epoch rev:           35208
Checksum:              338

Satellite: FALCON
Catalog number: 30776
Epoch time:      12158.59312844
Element set:     362
Inclination:      035.4322 deg
RA of node:       341.5425 deg
Eccentricity:    0.0002612
Arg of perigee:   312.0355 deg
Mean anomaly:     048.0148 deg
Mean motion:   15.07494028 rev/day
Decay rate:      3.763e-05 rev/day^2
Epoch rev:           28865
Checksum:              281

Satellite: MAST
Catalog number: 31126
Epoch time:      12157.52531589
Element set:     474
Inclination:      097.8744 deg
RA of node:       169.3094 deg
Eccentricity:    0.0094342
Arg of perigee:   146.4237 deg
Mean anomaly:     214.2981 deg
Mean motion:   14.54155239 rev/day
Decay rate:       6.34e-06 rev/day^2
Epoch rev:           27257
Checksum:              313

Satellite: CAPE1
Catalog number: 31130
Epoch time:      12157.68917654
Element set:    0488
Inclination:      097.8828 deg
RA of node:       165.8530 deg
Eccentricity:    0.0102238
Arg of perigee:   158.8709 deg
Mean anomaly:     201.6729 deg
Mean motion:   14.52932342 rev/day
Decay rate:       6.67e-06 rev/day^2
Epoch rev:           27210
Checksum:              317

